QTR890 ZGHA-ZSSS

Flight info

Callsign QTR890
Flight time N/A
Altitude 39100
Route GUD9X GUDRO W56 IDPOG A581 WHA R343 SASAN SAS61A
Aircraft B77W/H-SDE1E2E3FGHIJ2J3J4J5M1RWXY/LB1D1

Departure

Time 2026-04-21 05:09
Airport Changsha Huanghua International Airport (ZGHA)

Arrival

Time N/A
Airport Shanghai Hongqiao International Airport (ZSSS)
Time Latitude Longitude Altitude Speed Heading
2026-04-21 04:42 28.18796 113.21602 234 ft 0 kts 218°
2026-04-21 04:57 28.18802 113.21606 234 ft 2 kts 218°
2026-04-21 04:57 28.18813 113.21617 234 ft 2 kts 218°
2026-04-21 04:57 28.18825 113.21628 234 ft 2 kts 218°
2026-04-21 04:57 28.18837 113.21639 234 ft 2 kts 218°
2026-04-21 04:58 28.18849 113.21649 234 ft 2 kts 218°
2026-04-21 04:58 28.18860 113.21660 234 ft 2 kts 218°
2026-04-21 04:58 28.18872 113.21671 234 ft 2 kts 216°
2026-04-21 04:58 28.18885 113.21678 234 ft 2 kts 195°
2026-04-21 04:59 28.18900 113.21680 234 ft 2 kts 177°
2026-04-21 04:59 28.18914 113.21679 234 ft 2 kts 174°
2026-04-21 04:59 28.18922 113.21678 234 ft 0 kts 175°
2026-04-21 05:01 28.18921 113.21678 234 ft 0 kts 175°
2026-04-21 05:01 28.18899 113.21680 234 ft 5 kts 176°
2026-04-21 05:02 28.18848 113.21683 234 ft 9 kts 177°
2026-04-21 05:02 28.18771 113.21687 234 ft 12 kts 177°
2026-04-21 05:02 28.18690 113.21692 234 ft 10 kts 177°
2026-04-21 05:02 28.18615 113.21697 234 ft 9 kts 171°
2026-04-21 05:03 28.18587 113.21748 234 ft 9 kts 86°
2026-04-21 05:03 28.18566 113.21804 234 ft 7 kts 154°
2026-04-21 05:03 28.18505 113.21814 234 ft 10 kts 176°
2026-04-21 05:03 28.18418 113.21819 234 ft 13 kts 176°
2026-04-21 05:04 28.18311 113.21826 234 ft 16 kts 176°
2026-04-21 05:04 28.18189 113.21834 234 ft 17 kts 177°
2026-04-21 05:04 28.18071 113.21841 234 ft 16 kts 176°
2026-04-21 05:04 28.17958 113.21847 234 ft 12 kts 176°
2026-04-21 05:05 28.17891 113.21852 234 ft 9 kts 176°
2026-04-21 05:05 28.17825 113.21857 234 ft 9 kts 176°
2026-04-21 05:05 28.17762 113.21867 234 ft 8 kts 149°
2026-04-21 05:05 28.17741 113.21924 234 ft 4 kts 86°
2026-04-21 05:06 28.17741 113.21927 234 ft 0 kts 87°
2026-04-21 05:06 28.17742 113.21938 234 ft 3 kts 87°
2026-04-21 05:06 28.17743 113.21982 234 ft 7 kts 87°
2026-04-21 05:07 28.17771 113.22041 234 ft 10 kts 16°
2026-04-21 05:07 28.17837 113.22043 234 ft 0 kts 357°
2026-04-21 05:08 28.17907 113.22039 234 ft 35 kts 356°
2026-04-21 05:08 28.18432 113.22007 234 ft 112 kts 356°
2026-04-21 05:08 28.19432 113.21944 338 ft 164 kts 355°
2026-04-21 05:09 28.20549 113.21867 1045 ft 166 kts 356°
2026-04-21 05:09 28.21735 113.21796 1688 ft 175 kts 357°
2026-04-21 05:09 28.23003 113.21723 2103 ft 192 kts 357°
2026-04-21 05:09 28.24396 113.21639 2526 ft 209 kts 358°
2026-04-21 05:10 28.25925 113.21545 2965 ft 229 kts 359°
2026-04-21 05:10 28.27550 113.21765 3418 ft 246 kts 20°
2026-04-21 05:10 28.29062 113.22800 3833 ft 263 kts 46°
2026-04-21 05:10 28.30184 113.24493 4459 ft 272 kts 59°
2026-04-21 05:11 28.31208 113.26300 5242 ft 277 kts 58°
2026-04-21 05:11 28.32275 113.28142 5883 ft 286 kts 58°
2026-04-21 05:11 28.33394 113.30040 6530 ft 295 kts 58°
2026-04-21 05:11 28.34552 113.31998 7266 ft 300 kts 57°
2026-04-21 05:12 28.35712 113.33958 8043 ft 302 kts 57°
2026-04-21 05:12 28.36896 113.35961 8733 ft 308 kts 57°
2026-04-21 05:12 28.38096 113.37990 9373 ft 314 kts 56°
2026-04-21 05:12 28.39309 113.40044 10149 ft 316 kts 55°
2026-04-21 05:13 28.40542 113.42132 10651 ft 328 kts 56°
2026-04-21 05:13 28.42018 113.44209 11064 ft 342 kts 44°
2026-04-21 05:13 28.43861 113.45962 11430 ft 358 kts 32°
2026-04-21 05:13 28.46114 113.47327 11837 ft 373 kts 19°
2026-04-21 05:14 28.48646 113.48137 12248 ft 386 kts
2026-04-21 05:14 28.51374 113.48408 12628 ft 400 kts 360°
2026-04-21 05:14 28.54166 113.48566 13312 ft 406 kts
2026-04-21 05:14 28.57023 113.48740 14191 ft 408 kts
2026-04-21 05:15 28.59862 113.48920 15040 ft 413 kts
2026-04-21 05:15 28.62724 113.49110 15845 ft 419 kts 360°
2026-04-21 05:15 28.65678 113.49312 16659 ft 424 kts
2026-04-21 05:15 28.68625 113.49515 17403 ft 431 kts
2026-04-21 05:16 28.71643 113.49727 18086 ft 438 kts
2026-04-21 05:16 28.74712 113.49944 18781 ft 445 kts 360°
2026-04-21 05:16 28.77779 113.50163 19611 ft 447 kts 360°
2026-04-21 05:16 28.80902 113.50386 20414 ft 449 kts 359°
2026-04-21 05:17 28.84033 113.50609 21108 ft 454 kts 359°
2026-04-21 05:17 28.87208 113.50835 21769 ft 459 kts 359°
2026-04-21 05:17 28.90431 113.51067 22437 ft 463 kts 359°
2026-04-21 05:17 28.93647 113.51297 23089 ft 467 kts 359°
2026-04-21 05:18 28.96901 113.51531 23782 ft 470 kts 359°
2026-04-21 05:18 29.00147 113.51765 24434 ft 474 kts 359°
2026-04-21 05:18 29.03480 113.52004 25088 ft 478 kts 358°
2026-04-21 05:18 29.06823 113.52245 25747 ft 483 kts 359°
2026-04-21 05:19 29.10177 113.52486 26361 ft 488 kts 359°
2026-04-21 05:19 29.13591 113.52733 27018 ft 492 kts 359°
2026-04-21 05:19 29.17007 113.52979 27709 ft 495 kts 359°
2026-04-21 05:19 29.20482 113.53231 28361 ft 499 kts 359°
2026-04-21 05:20 29.23954 113.53482 28995 ft 503 kts 359°
2026-04-21 05:20 29.27440 113.53735 29718 ft 505 kts 359°
2026-04-21 05:20 29.30952 113.54007 30525 ft 506 kts 359°
2026-04-21 05:20 29.34431 113.54312 31521 ft 500 kts 359°
2026-04-21 05:21 29.37894 113.54617 32456 ft 495 kts 359°
2026-04-21 05:21 29.41284 113.54915 33251 ft 493 kts 359°
2026-04-21 05:21 29.44704 113.55214 34021 ft 491 kts 359°
2026-04-21 05:21 29.48122 113.55512 34752 ft 490 kts 359°
2026-04-21 05:22 29.51501 113.55807 35542 ft 488 kts 359°
2026-04-21 05:22 29.54901 113.56104 36291 ft 485 kts 359°
2026-04-21 05:22 29.58262 113.56396 37017 ft 482 kts 358°
2026-04-21 05:22 29.61620 113.56689 37538 ft 481 kts 358°
2026-04-21 05:23 29.65042 113.56986 38046 ft 480 kts 358°
2026-04-21 05:23 29.68393 113.57278 38427 ft 481 kts 358°
2026-04-21 05:23 29.71749 113.57569 38667 ft 483 kts 358°
2026-04-21 05:23 29.75130 113.57863 38922 ft 484 kts 358°
2026-04-21 05:24 29.78537 113.58160 39054 ft 488 kts 358°
2026-04-21 05:24 29.81900 113.58452 38998 ft 490 kts 358°
2026-04-21 05:24 29.88692 113.59048 39011 ft 486 kts 358°
2026-04-21 05:25 29.95399 113.60216 39038 ft 494 kts 11°
2026-04-21 05:25 30.01876 113.63202 39010 ft 504 kts 18°
2026-04-21 05:26 30.08337 113.66433 39012 ft 505 kts 19°
2026-04-21 05:26 30.14815 113.69675 39029 ft 502 kts 18°
2026-04-21 05:27 30.21243 113.72890 39012 ft 506 kts 19°
2026-04-21 05:27 30.27764 113.76157 39018 ft 507 kts 19°
2026-04-21 05:28 30.34236 113.79403 39030 ft 514 kts 18°
2026-04-21 05:28 30.40914 113.82755 39020 ft 524 kts 18°
2026-04-21 05:29 30.47656 113.86144 39016 ft 532 kts 19°
2026-04-21 05:29 30.54496 113.89589 39015 ft 538 kts 19°
2026-04-21 05:30 30.61188 113.93707 39042 ft 551 kts 32°
2026-04-21 05:30 30.66781 113.99818 39048 ft 559 kts 49°
2026-04-21 05:31 30.71137 114.07352 39050 ft 564 kts 56°
2026-04-21 05:31 30.75355 114.15099 39051 ft 564 kts 56°
2026-04-21 05:32 30.79089 114.23076 39046 ft 565 kts 67°
2026-04-21 05:32 30.81955 114.31646 39052 ft 567 kts 69°
2026-04-21 05:33 30.84715 114.40247 39052 ft 568 kts 69°
2026-04-21 05:33 30.87497 114.48917 39052 ft 571 kts 69°
2026-04-21 05:34 30.90279 114.57501 39036 ft 570 kts 68°
2026-04-21 05:34 30.93071 114.66121 39023 ft 572 kts 69°
2026-04-21 05:35 30.95893 114.74857 39005 ft 573 kts 68°
2026-04-21 05:35 30.98681 114.83511 39010 ft 572 kts 68°
2026-04-21 05:36 31.01484 114.92233 39000 ft 573 kts 68°
2026-04-21 05:36 31.04280 115.00958 38995 ft 574 kts 68°
2026-04-21 05:37 31.07063 115.09669 39000 ft 575 kts 68°
2026-04-21 05:37 31.09853 115.18426 39010 ft 575 kts 67°
2026-04-21 05:38 31.12630 115.27191 39027 ft 576 kts 68°
2026-04-21 05:38 31.15436 115.35924 39030 ft 574 kts 67°
2026-04-21 05:39 31.18249 115.44598 39020 ft 574 kts 67°
2026-04-21 05:39 31.21074 115.53339 39041 ft 576 kts 67°
2026-04-21 05:40 31.23871 115.62023 39058 ft 575 kts 66°
2026-04-21 05:40 31.26683 115.70781 39059 ft 573 kts 67°
2026-04-21 05:41 31.29488 115.79539 39066 ft 575 kts 67°
2026-04-21 05:41 31.32263 115.88239 39059 ft 574 kts 67°
2026-04-21 05:42 31.35090 115.96935 39023 ft 573 kts 66°
2026-04-21 05:42 31.37926 116.05627 39034 ft 573 kts 66°
2026-04-21 05:43 31.40757 116.14334 39044 ft 572 kts 66°
2026-04-21 05:43 31.43586 116.23058 39038 ft 574 kts 67°
2026-04-21 05:44 31.46406 116.31787 39043 ft 573 kts 66°
2026-04-21 05:44 31.49210 116.40488 39052 ft 573 kts 66°
2026-04-21 05:45 31.51991 116.49146 39074 ft 570 kts 66°
2026-04-21 05:45 31.54810 116.57939 39068 ft 573 kts 66°
2026-04-21 05:46 31.57589 116.66638 39054 ft 572 kts 66°
2026-04-21 05:46 31.60356 116.75319 39054 ft 571 kts 67°
2026-04-21 05:47 31.63128 116.84041 39059 ft 571 kts 66°
2026-04-21 05:47 31.65889 116.92750 39071 ft 571 kts 67°
2026-04-21 05:48 31.68662 117.01524 39074 ft 570 kts 67°
2026-04-21 05:48 31.71366 117.10240 39096 ft 570 kts 67°
2026-04-21 05:49 31.74076 117.19031 39092 ft 569 kts 66°
2026-04-21 05:49 31.76445 117.27846 39073 ft 572 kts 77°
2026-04-21 05:50 31.76974 117.37115 39080 ft 569 kts 93°
2026-04-21 05:50 31.76377 117.46478 39083 ft 570 kts 94°
2026-04-21 05:51 31.75744 117.55652 39067 ft 567 kts 94°
2026-04-21 05:51 31.75095 117.64923 39059 ft 565 kts 94°
2026-04-21 05:52 31.74444 117.74122 39041 ft 564 kts 94°
2026-04-21 05:52 31.73785 117.83330 39057 ft 566 kts 95°
2026-04-21 05:53 31.73120 117.92525 39080 ft 559 kts 95°
2026-04-21 05:53 31.72455 118.01630 39072 ft 561 kts 95°
2026-04-21 05:54 31.71787 118.10693 39045 ft 559 kts 94°
2026-04-21 05:54 31.71151 118.19778 39064 ft 561 kts 94°
2026-04-21 05:55 31.70519 118.28879 39076 ft 560 kts 94°
2026-04-21 05:55 31.69886 118.37880 39070 ft 539 kts 94°
2026-04-21 05:56 31.69579 118.42213 39106 ft 523 kts 95°
2026-04-21 05:56 31.69279 118.46421 39096 ft 516 kts 94°
2026-04-21 05:56 31.68669 118.54914 39077 ft 524 kts 95°
2026-04-21 05:57 31.68052 118.63405 39137 ft 523 kts 95°
2026-04-21 05:57 31.67434 118.71846 39107 ft 519 kts 95°
2026-04-21 05:58 31.66828 118.80043 39114 ft 518 kts 95°
2026-04-21 05:58 31.66200 118.88461 39113 ft 518 kts 95°
2026-04-21 05:59 31.65882 118.92694 38977 ft 514 kts 95°
2026-04-21 05:59 31.65571 118.96819 38641 ft 515 kts 95°
2026-04-21 05:59 31.65253 119.01026 38232 ft 516 kts 95°
2026-04-21 06:00 31.64709 119.09426 37545 ft 518 kts 93°
2026-04-21 06:00 31.64504 119.13617 37308 ft 517 kts 93°
2026-04-21 06:00 31.64308 119.17837 36999 ft 511 kts 93°
2026-04-21 06:00 31.64131 119.21967 35949 ft 516 kts 93°
2026-04-21 06:01 31.63948 119.26202 34879 ft 519 kts 93°
2026-04-21 06:01 31.63764 119.30404 33978 ft 519 kts 94°
2026-04-21 06:01 31.63575 119.34618 33070 ft 519 kts 94°
2026-04-21 06:01 31.63386 119.38797 32183 ft 519 kts 94°
2026-04-21 06:02 31.63188 119.43078 31213 ft 521 kts 94°
2026-04-21 06:02 31.62990 119.47296 30417 ft 518 kts 94°
2026-04-21 06:02 31.62791 119.51492 29911 ft 510 kts 94°
2026-04-21 06:02 31.62596 119.55589 29358 ft 504 kts 94°
2026-04-21 06:03 31.62398 119.59694 28752 ft 498 kts 94°
2026-04-21 06:03 31.62204 119.63693 28148 ft 494 kts 94°
2026-04-21 06:03 31.62008 119.67712 27524 ft 490 kts 94°
2026-04-21 06:03 31.61823 119.71703 26890 ft 486 kts 94°
2026-04-21 06:04 31.61643 119.75665 26257 ft 482 kts 94°
2026-04-21 06:04 31.61465 119.79572 25618 ft 478 kts 94°
2026-04-21 06:04 31.61355 119.81956 25222 ft 476 kts 94°
2026-04-21 06:04 31.61330 119.82503 25131 ft 475 kts 94°
2026-04-21 06:05 31.61170 119.85971 24570 ft 472 kts 94°
2026-04-21 06:05 31.60993 119.89750 23928 ft 468 kts 94°
2026-04-21 06:05 31.60815 119.93546 23311 ft 465 kts 94°
2026-04-21 06:05 31.60637 119.97312 22686 ft 462 kts 94°
2026-04-21 06:06 31.60456 120.01103 22062 ft 460 kts 94°
2026-04-21 06:06 31.60279 120.04808 21425 ft 458 kts 94°
2026-04-21 06:06 31.60099 120.08546 20761 ft 457 kts 94°
2026-04-21 06:06 31.59986 120.10863 20346 ft 456 kts 94°
2026-04-21 06:07 31.59906 120.12509 20054 ft 455 kts 94°
2026-04-21 06:07 31.59829 120.14085 19773 ft 454 kts 94°
2026-04-21 06:07 31.59661 120.17527 19148 ft 452 kts 94°
2026-04-21 06:07 31.59481 120.21185 18479 ft 449 kts 94°
2026-04-21 06:08 31.59300 120.24833 17804 ft 446 kts 94°
2026-04-21 06:08 31.59121 120.28413 17143 ft 443 kts 94°
2026-04-21 06:08 31.58750 120.31930 16473 ft 438 kts 103°
2026-04-21 06:08 31.57906 120.35355 15899 ft 430 kts 110°
2026-04-21 06:09 31.56943 120.38644 15490 ft 420 kts 111°
2026-04-21 06:09 31.55996 120.41842 15076 ft 412 kts 111°
2026-04-21 06:09 31.55068 120.44965 14663 ft 407 kts 111°
2026-04-21 06:09 31.54141 120.48077 14250 ft 405 kts 111°
2026-04-21 06:10 31.53222 120.51160 13837 ft 397 kts 111°
2026-04-21 06:10 31.52323 120.54172 13434 ft 389 kts 111°
2026-04-21 06:10 31.51436 120.57141 13045 ft 381 kts 111°
2026-04-21 06:10 31.50727 120.59514 12729 ft 375 kts 111°
2026-04-21 06:11 31.50103 120.61595 12452 ft 370 kts 111°
2026-04-21 06:11 31.49256 120.64423 12077 ft 362 kts 111°
2026-04-21 06:11 31.48428 120.67181 11703 ft 355 kts 112°
2026-04-21 06:11 31.47615 120.69889 11340 ft 348 kts 112°
2026-04-21 06:12 31.46827 120.72510 10980 ft 341 kts 113°
2026-04-21 06:12 31.46045 120.75111 10627 ft 330 kts 113°
2026-04-21 06:12 31.45312 120.77550 10303 ft 313 kts 114°
2026-04-21 06:12 31.44605 120.79899 10000 ft 297 kts 114°
2026-04-21 06:13 31.43936 120.82117 9694 ft 285 kts 114°
2026-04-21 06:13 31.43283 120.84277 9352 ft 274 kts 114°
2026-04-21 06:13 31.42652 120.86365 9079 ft 266 kts 114°
2026-04-21 06:13 31.42040 120.88386 8787 ft 260 kts 114°
2026-04-21 06:14 31.41441 120.90366 8485 ft 254 kts 114°
2026-04-21 06:14 31.40853 120.92310 8223 ft 248 kts 113°
2026-04-21 06:14 31.40285 120.94187 7960 ft 243 kts 112°
2026-04-21 06:14 31.39960 120.96122 7709 ft 241 kts 100°
2026-04-21 06:15 31.39823 120.98039 7476 ft 237 kts 99°
2026-04-21 06:15 31.39697 120.99963 7227 ft 235 kts 98°
2026-04-21 06:15 31.39571 121.01872 6977 ft 232 kts 99°
2026-04-21 06:15 31.39445 121.03742 6753 ft 230 kts 98°
2026-04-21 06:16 31.39322 121.05593 6499 ft 228 kts 99°
2026-04-21 06:16 31.39199 121.07422 6279 ft 220 kts 98°
2026-04-21 06:16 31.39081 121.09167 6114 ft 210 kts 99°
2026-04-21 06:16 31.38969 121.10824 5953 ft 204 kts 98°
2026-04-21 06:17 31.38856 121.12479 5719 ft 199 kts 99°
2026-04-21 06:17 31.38748 121.14066 5486 ft 194 kts 99°
2026-04-21 06:17 31.38642 121.15622 5299 ft 188 kts 99°
2026-04-21 06:17 31.38539 121.17133 5121 ft 183 kts 99°
2026-04-21 06:18 31.38438 121.18606 4948 ft 182 kts 99°
2026-04-21 06:18 31.38338 121.20062 4787 ft 181 kts 99°
2026-04-21 06:18 31.38237 121.21536 4590 ft 180 kts 99°
2026-04-21 06:18 31.38198 121.22990 4389 ft 176 kts 93°
2026-04-21 06:19 31.38231 121.24369 4227 ft 167 kts 94°
2026-04-21 06:19 31.38245 121.25710 4049 ft 159 kts 95°
2026-04-21 06:19 31.38250 121.26975 3916 ft 156 kts 95°
2026-04-21 06:19 31.38257 121.28246 3766 ft 155 kts 95°
2026-04-21 06:20 31.38264 121.29507 3608 ft 153 kts 95°
2026-04-21 06:20 31.38263 121.30734 3448 ft 150 kts 100°
2026-04-21 06:20 31.37850 121.31795 3276 ft 144 kts 140°
2026-04-21 06:20 31.36970 121.32372 3082 ft 146 kts 156°
2026-04-21 06:21 31.35988 121.32667 2890 ft 146 kts 164°
2026-04-21 06:21 31.34996 121.32803 2706 ft 137 kts 170°
2026-04-21 06:21 31.34047 121.32859 2525 ft 134 kts 171°
2026-04-21 06:21 31.33139 121.32905 2355 ft 132 kts 170°
2026-04-21 06:22 31.32221 121.32954 2179 ft 132 kts 170°
2026-04-21 06:22 31.31302 121.33001 2000 ft 130 kts 170°
2026-04-21 06:22 31.30398 121.33048 1824 ft 130 kts 169°
2026-04-21 06:22 31.29478 121.33099 1649 ft 130 kts 169°
2026-04-21 06:23 31.28577 121.33149 1476 ft 129 kts 170°
2026-04-21 06:23 31.27677 121.33198 1294 ft 131 kts 170°
2026-04-21 06:23 31.26760 121.33250 1119 ft 130 kts 171°
2026-04-21 06:23 31.25847 121.33299 944 ft 130 kts 172°
2026-04-21 06:24 31.24915 121.33348 773 ft 136 kts 171°
2026-04-21 06:24 31.23987 121.33398 552 ft 134 kts 173°
2026-04-21 06:24 31.23036 121.33446 397 ft 136 kts 171°
2026-04-21 06:24 31.22094 121.33511 210 ft 135 kts 174°
2026-04-21 06:25 31.21152 121.33557 44 ft 137 kts 174°
2026-04-21 06:25 31.20251 121.33604 21 ft 113 kts 174°
2026-04-21 06:25 31.19628 121.33640 20 ft 63 kts 177°